[[{"header":{"parameterUnit":"m.s-1","parameterCategory":1,"la1":30.2991,"la2":30.254,"lo1":-89.0895,"lo2":-89.0444,"dy":0.0017,"dx":0.0017,"nx":28,"ny":28,"refTime":"2023-11-20T09:00:00:Z","depth":0,"parameterNumber":2,"parameterNumberName":"U-component_of_WINDS"},"data":[0,0,0,0,0,0,0,0,0,0,0,0,0,0,0,0,0,0,0,0,0,0,0,0,0,0,0,0,0,0,0,0,0,0,0,0,0,0,0,0,0,0,0,0,0,0,0,0,0,0,0,0,0,0,0,0,0,0,-5.0887,-5.0887,0,-5.085,-5.0849,-5.0849,-5.0747,-5.0745,-5.0743,-5.0741,-5.0705,-5.0706,-5.0707,0,0,0,0,0,0,0,0,0,0,0,0,0,-5.0873,-5.0874,-5.0887,-5.0886,-5.0886,-5.085,-5.0849,-5.0849,-5.0747,-5.0745,-5.0742,-5.074,-5.0705,-5.0706,-5.0707,0,0,0,0,0,0,0,0,0,0,0,0,0,-5.0862,-5.0874,-5.0887,-5.0831,-5.0826,-5.085,-5.0849,-5.0848,-5.0748,-5.0745,-5.0741,-5.0738,-5.0704,-5.0706,-5.0707,-5.0783,0,0,-5.0712,-5.0713,0,0,0,0,0,0,0,0,-5.0863,-5.0863,-5.084,-5.0835,-5.0829,-5.0799,-5.0831,-5.0827,-5.0749,-5.0778,-5.074,-5.0737,-5.0739,-5.0738,-5.0738,-5.0782,-5.078,-5.0712,-5.0713,-5.0714,-5.0715,0,0,0,0,0,0,0,-5.0864,-5.0864,-5.0872,-5.084,-5.0833,-5.0809,-5.0803,-5.083,-5.0777,-5.0775,-5.0767,-5.0764,-5.0736,-5.0737,-5.0736,-5.078,-5.0712,-5.0714,-5.0715,-5.0716,-5.0883,-5.0886,0,0,0,0,0,0,-5.0872,-5.0865,-5.0873,-5.0871,-5.0838,-5.0812,-5.0806,-5.0812,-5.0777,-5.0768,-5.0767,-5.076,-5.0736,-5.0735,-5.0735,-5.082,-5.0714,-5.0716,-5.0717,-5.088,-5.0884,-5.0887,0,0,0,0,0,0,-5.0872,-5.0874,-5.0875,-5.0866,-5.0864,-5.0815,-5.0824,-5.0813,-5.0814,-5.0771,-5.0761,-5.0777,-5.0733,-5.0733,-5.0772,-5.0817,-5.0716,-5.0718,-5.0875,-5.0881,-5.0886,-5.0992,0,0,0,0,0,0,-5.0872,-5.0875,-5.0902,-5.0867,-5.0865,-5.0912,-5.0826,-5.0815,-5.0817,-5.0807,-5.0778,-5.077,-5.073,-5.077,-5.0773,-5.0818,-5.0719,-5.0871,-5.0878,-5.0884,-5.0984,-5.1,-5.1014,0,0,0,0,0,-5.0872,-5.0935,-5.0904,-5.0906,-5.0899,-5.0915,-5.0913,-5.0865,-5.0821,-5.0849,-5.0821,-5.0771,-5.0813,-5.0775,-5.0778,-5.0824,-5.0868,-5.0876,-5.0883,-5.0978,-5.0997,-5.1014,0,0,0,0,0,0,-5.0977,-5.0929,-5.0895,-5.0947,-5.0936,-5.0897,-5.093,-5.0888,-5.0889,-5.088,-5.0821,-5.0815,-5.0862,-5.0847,-5.0806,-5.0895,-5.0832,-5.0841,-5.0903,-5.0921,-5.0936,-5.0937,-5.0721,0,0,0,0,0,-5.1006,-5.1022,-5.098,-5.1031,-5.1026,-5.098,-5.0985,-5.0949,-5.0935,-5.093,-5.0905,-5.0894,-5.0904,-5.0912,-5.0919,-5.0983,-5.0974,-5.1016,-5.1031,-5.1043,-5.1051,-5.1082,-5.1099,-5.0913,-5.0913,-5.0913,0,0,-5.1067,-5.1042,-5.1056,-5.1051,-5.1038,-5.1056,-5.0976,-5.1,-5.1013,-5.0934,-5.0968,-5.095,-5.0934,-5.0985,-5.1006,-5.0974,-5.1101,-5.1053,-5.1063,-5.1064,-5.1092,-5.111,-5.1125,-5.0918,-5.0917,-5.0917,0,0,-5.1185,-5.1169,-5.1209,-5.1197,-5.1178,-5.1146,-5.1157,-5.1125,-5.1109,-5.1143,-5.1084,-5.1099,-5.1119,-5.1109,-5.1107,-5.1223,-5.1177,-5.1228,-5.1305,-5.1336,-5.1351,-5.1363,-5.1403,-5.1418,-5.1236,-5.1236,-5.1237,0,-5.1263,-5.1287,-5.1235,-5.1261,-5.1261,-5.119,-5.123,-5.1221,-5.1206,-5.1207,-5.1171,-5.1193,-5.1178,-5.1225,-5.1253,-5.1255,-5.1264,-5.1229,-5.1353,-5.1365,-5.1376,-5.1413,-5.1429,-5.1242,-5.1242,-5.1241,-5.1241,0,-5.1383,-5.1401,-5.1436,-5.1421,-5.1425,-5.1458,-5.1411,-5.1422,-5.1386,-5.1359,-5.1395,-5.1374,-5.1375,-5.1384,-5.135,-5.1427,-5.1407,-5.1363,-5.1298,-5.1401,-5.1435,-5.1449,-5.1251,-5.1249,-5.1247,-5.1246,0,0,-5.1565,-5.1521,-5.1534,-5.1526,-5.15,-5.1514,-5.1545,-5.1545,-5.1554,-5.1547,-5.157,-5.1589,-5.1547,-5.1545,-5.151,-5.1538,-5.1629,-5.149,-5.1489,-5.1515,-5.1711,-5.1743,-5.176,-5.16,-5.1602,-5.1604,-5.1712,0,-5.1675,-5.1723,-5.1677,-5.1734,-5.175,-5.1684,-5.171,-5.1698,-5.1674,-5.1684,-5.1658,-5.1671,-5.1617,-5.1615,-5.164,-5.1613,-5.1668,-5.1605,-5.1621,-5.1622,-5.1624,-5.1778,-5.1811,-5.1914,-5.1725,-5.1727,-5.1729,0,-5.1809,-5.1807,-5.1865,-5.1835,-5.184,-5.1864,-5.186,-5.1872,-5.1856,-5.1837,-5.1835,-5.1792,-5.182,-5.1759,-5.1797,-5.1755,-5.176,-5.1748,-5.1751,-5.1748,-5.168,-5.1778,-5.1945,-5.196,-5.175,-5.1748,-5.1747,0,-5.1934,-5.1945,-5.1981,-5.1977,-5.1943,-5.1961,-5.1948,-5.193,-5.1933,-5.193,-5.1932,-5.1934,-5.1934,-5.1937,-5.1895,-5.1855,-5.1938,-5.1874,-5.1922,-5.1924,-5.1941,-5.194,-5.2109,-5.1948,-5.1948,-5.1948,-5.1947,0,-5.206,-5.2098,-5.2036,-5.2058,-5.2099,-5.2047,-5.2089,-5.2069,-5.2053,-5.2071,-5.2015,-5.2033,-5.1978,-5.199,-5.1959,-5.1994,-5.1996,-5.1981,-5.1971,-5.1984,-5.1986,-5.1984,-5.1975,-5.1952,-5.1951,-5.195,-5.1949,0,-5.2204,-5.2164,-5.2199,-5.2164,-5.2156,-5.2188,-5.2158,-5.2177,-5.215,-5.2173,-5.2175,-5.2133,-5.2145,-5.2104,-5.211,-5.2089,-5.214,-5.2121,-5.2145,-5.2138,-5.2188,-5.2183,-5.236,-5.238,-5.2209,-5.2211,-5.2212,0,-5.2286,-5.2314,-5.2282,-5.2289,-5.2278,-5.2291,-5.2293,-5.2244,-5.2249,-5.2234,-5.2255,-5.2262,-5.2264,-5.2286,-5.2256,-5.226,-5.2239,-5.2301,-5.2239,-5.225,-5.2237,-5.2235,-5.2237,-5.2313,-5.2315,-5.2316,-5.2318,0,-5.2436,-5.2415,-5.242,-5.2418,-5.2422,-5.2419,-5.2412,-5.2422,-5.2369,-5.2378,-5.2388,-5.239,-5.2395,-5.2402,-5.24,-5.2387,-5.2344,-5.2338,-5.2349,-5.2361,-5.2373,-5.2365,-5.2177,-5.2333,-5.2332,-5.2331,-5.233,-5.2329,-5.255,-5.257,-5.2551,-5.2558,-5.2548,-5.2543,-5.2558,-5.2533,-5.2541,-5.254,-5.2511,-5.2528,-5.2512,-5.2504,-5.2496,-5.2508,-5.2479,-5.2496,-5.2499,-5.2504,-5.2511,-5.2373,-5.2508,-5.2507,-5.2507,-5.2506,-5.2506,0,-5.2694,-5.2678,-5.2686,-5.2677,-5.2683,-5.2642,-5.2632,-5.264,-5.2655,-5.2644,-5.2647,-5.2659,-5.2666,-5.2637,-5.264,-5.2656,-5.2636,-5.2658,-5.2655,-5.2652,-5.2538,-5.2527,-5.2674,-5.2674,-5.2674,-5.2674,-5.2674,-5.2674,-5.277,-5.2802,-5.2779,-5.2806,-5.279,-5.2804,-5.2802,-5.2797,-5.2787,-5.2803,-5.2808,-5.2789,-5.2771,-5.2772,-5.2777,-5.2768,-5.2771,-5.28,-5.2784,-5.2677,-5.2661,-5.2645,-5.2634,-5.2801,-5.2801,-5.2897,-5.2898,-5.2899]},{"header":{"parameterUnit":"m.s-1","parameterCategory":1,"la1":30.2991,"la2":30.254,"lo1":-89.0895,"lo2":-89.0444,"dy":0.0017,"dx":0.0017,"nx":28,"ny":28,"refTime":"2023-11-20T09:00:00:Z","depth":0,"parameterNumber":3,"parameterNumberName":"V-component_of_WINDS"},"data":[0,0,0,0,0,0,0,0,0,0,0,0,0,0,0,0,0,0,0,0,0,0,0,0,0,0,0,0,0,0,0,0,0,0,0,0,0,0,0,0,0,0,0,0,0,0,0,0,0,0,0,0,0,0,0,0,0,0,2.4061,2.4063,0,2.4234,2.4236,2.4238,2.4245,2.4243,2.4241,2.4239,2.4417,2.4423,2.443,0,0,0,0,0,0,0,0,0,0,0,0,0,2.3742,2.3748,2.4061,2.4063,2.4065,2.4233,2.4236,2.4238,2.4245,2.4243,2.424,2.4238,2.4414,2.4422,2.443,0,0,0,0,0,0,0,0,0,0,0,0,0,2.3894,2.375,2.406,2.4089,2.4093,2.4233,2.4236,2.4239,2.4246,2.4243,2.424,2.4237,2.4412,2.4422,2.4431,2.4554,0,0,2.4462,2.4466,0,0,0,0,0,0,0,0,2.3885,2.3906,2.4083,2.4087,2.4092,2.4215,2.4189,2.4345,2.4247,2.4188,2.4239,2.4235,2.4352,2.4367,2.4406,2.4563,2.457,2.4463,2.4469,2.4473,2.4476,0,0,0,0,0,0,0,2.3875,2.3898,2.4129,2.4085,2.4091,2.4095,2.4113,2.4218,2.4285,2.4193,2.4194,2.4214,2.4354,2.4396,2.441,2.4573,2.4462,2.4471,2.4477,2.4481,2.4848,2.4851,0,0,0,0,0,0,2.3858,2.389,2.4124,2.4134,2.3979,2.4103,2.4124,2.4179,2.4284,2.4297,2.4217,2.4214,2.4381,2.4398,2.4416,2.4572,2.4473,2.4482,2.4488,2.4844,2.4848,2.4852,0,0,0,0,0,0,2.3851,2.3879,2.4117,2.4013,2.4043,2.4112,2.4174,2.4184,2.4226,2.4302,2.4314,2.4247,2.4379,2.4402,2.4522,2.4578,2.4487,2.4496,2.4839,2.4845,2.485,2.4882,0,0,0,0,0,0,2.3842,2.3877,2.3922,2.4013,2.4048,2.4218,2.4177,2.4189,2.4243,2.4241,2.4334,2.4346,2.4378,2.4507,2.4532,2.4591,2.4504,2.4835,2.4842,2.4849,2.4876,2.4888,2.4898,0,0,0,0,0,2.3831,2.3923,2.3924,2.3953,2.4107,2.4221,2.4241,2.4276,2.4247,2.4295,2.4346,2.4343,2.4568,2.4519,2.4547,2.461,2.4831,2.484,2.4848,2.4871,2.4886,2.4898,0,0,0,0,0,0,2.3834,2.3935,2.3938,2.4062,2.4133,2.4222,2.4283,2.4289,2.4369,2.4364,2.4404,2.4425,2.4545,2.4589,2.4533,2.4738,2.4697,2.4711,2.4705,2.4719,2.473,2.4718,2.4512,0,0,0,0,0,2.385,2.3933,2.4016,2.4118,2.4154,2.4213,2.4263,2.4285,2.436,2.439,2.4448,2.4522,2.461,2.4667,2.4751,2.4883,2.4906,2.4941,2.4951,2.496,2.4973,2.5052,2.507,2.488,2.488,2.488,0,0,2.3882,2.3947,2.3997,2.4121,2.4178,2.4266,2.4237,2.4329,2.4396,2.4404,2.4521,2.4568,2.4653,2.4781,2.484,2.4821,2.5031,2.4971,2.4977,2.4985,2.5062,2.508,2.5096,2.4886,2.4885,2.4884,0,0,2.3986,2.4042,2.4136,2.4196,2.4284,2.4324,2.4347,2.4437,2.4468,2.4587,2.4597,2.4677,2.4826,2.4889,2.494,2.5076,2.5079,2.5103,2.516,2.5237,2.5252,2.5265,2.5319,2.5337,2.5114,2.5115,2.5115,0,2.4015,2.4146,2.4183,2.4278,2.4334,2.4348,2.4445,2.4501,2.4613,2.4653,2.463,2.4823,2.488,2.5026,2.506,2.51,2.513,2.5092,2.5247,2.5261,2.5274,2.5325,2.5344,2.5117,2.5117,2.5117,2.5116,0,2.418,2.4272,2.4337,2.4448,2.4511,2.4606,2.466,2.4721,2.4739,2.4782,2.4906,2.4977,2.508,2.5116,2.5132,2.5266,2.5252,2.5238,2.5197,2.5294,2.5343,2.5362,2.5121,2.512,2.5119,2.5118,0,0,2.4288,2.4422,2.4446,2.4499,2.4601,2.4673,2.4772,2.4873,2.4927,2.5005,2.5091,2.522,2.521,2.5268,2.5293,2.536,2.547,2.5339,2.5341,2.5364,2.5629,2.5641,2.5662,2.5473,2.5477,2.548,2.5623,0,2.4406,2.4581,2.462,2.4772,2.486,2.4878,2.4964,2.5038,2.5082,2.5165,2.5214,2.5308,2.5284,2.5321,2.5388,2.5442,2.5524,2.5432,2.5557,2.5561,2.5537,2.5687,2.5699,2.583,2.5642,2.5645,2.5647,0,2.4566,2.4651,2.4812,2.4909,2.4948,2.5024,2.5125,2.5202,2.5289,2.5317,2.5386,2.5405,2.5512,2.5467,2.5617,2.5554,2.5608,2.5643,2.5649,2.5663,2.5611,2.5709,2.5872,2.5893,2.5677,2.5674,2.5672,0,2.4634,2.4788,2.4907,2.4951,2.5066,2.5121,2.5171,2.5254,2.5315,2.5403,2.5444,2.5542,2.5597,2.5674,2.5722,2.5683,2.5871,2.5827,2.59,2.5899,2.5939,2.5936,2.6116,2.5969,2.5969,2.5968,2.5968,0,2.4763,2.4861,2.494,2.5012,2.5126,2.5172,2.5283,2.5334,2.5409,2.5494,2.5515,2.5595,2.5651,2.5741,2.5778,2.5901,2.5924,2.5952,2.5961,2.5952,2.5949,2.5989,2.5982,2.5974,2.5973,2.5972,2.5971,0,2.4857,2.4912,2.5043,2.5143,2.5171,2.5251,2.5338,2.5411,2.5458,2.5566,2.5594,2.5668,2.5775,2.583,2.5962,2.5988,2.6127,2.6129,2.6098,2.6103,2.6174,2.6168,2.6388,2.6421,2.6249,2.625,2.6252,0,2.4936,2.5013,2.5123,2.5183,2.5235,2.533,2.5394,2.5444,2.5509,2.5618,2.5679,2.5787,2.5877,2.6047,2.6114,2.6217,2.6224,2.6294,2.6239,2.623,2.623,2.6226,2.6236,2.6304,2.6305,2.6307,2.6308,0,2.5073,2.5099,2.5189,2.5292,2.5368,2.5451,2.5533,2.5581,2.5645,2.5719,2.5829,2.5899,2.6037,2.6146,2.6255,2.6309,2.6322,2.6325,2.6348,2.634,2.6321,2.6337,2.6128,2.632,2.6318,2.6318,2.6317,2.6316,2.5165,2.5237,2.5328,2.543,2.5498,2.5576,2.5652,2.571,2.5803,2.592,2.5945,2.6063,2.6154,2.6302,2.6361,2.6456,2.6442,2.6473,2.6482,2.649,2.6496,2.6304,2.6476,2.6475,2.6475,2.6475,2.6475,0,2.5306,2.5367,2.5461,2.5577,2.566,2.5664,2.5757,2.5826,2.593,2.6014,2.6103,2.6234,2.6341,2.6419,2.6529,2.6591,2.66,2.6619,2.6616,2.6629,2.65,2.6471,2.661,2.661,2.661,2.661,2.661,2.661,2.5389,2.5514,2.5551,2.5712,2.5772,2.5889,2.5942,2.6016,2.6084,2.6229,2.6319,2.637,2.6453,2.6571,2.6671,2.6692,2.6733,2.6752,2.6774,2.6652,2.6637,2.6624,2.6597,2.676,2.676,2.6895,2.6897,2.6897]}]]